Regional Weather Roundup
Issued by NWS Columbia, SC

Home | Current Version | Previous Version | Text Only | Print | Product List | Glossary On
Versions: 1 2 3 4 5 6 7 8 9 10 11 12 13 14 15 16 17 18 19 20 21 22 23 24 25 26 27 28 29 30 31 32 33 34 35 36 37 38 39 40 41 42 43 44 45 46 47 48 49 50
000
ASUS42 KCAE 241510
RWRCAE
REGIONAL WEATHER ROUNDUP
NATIONAL WEATHER SERVICE COLUMBIA SC
1100 AM EDT MON APR 24 2017

NOTE: "FAIR" INDICATES FEW OR NO CLOUDS BELOW 12,000 FEET WITH NO
SIGNIFICANT WEATHER AND/OR OBSTRUCTIONS TO VISIBILITY.

NOT ALL STATIONS ARE QUALITY CONTROLLED BY THE NATIONAL
WEATHER SERVICE. USE DATA WITH CAUTION...ESPECIALLY
DEWPOINT OBSERVATIONS.

SCZ001>056-GAZ040-063>065-077-241600-
...UPSTATE SOUTH CAROLINA...

CITY           SKY/WX    TMP DP  RH WIND       PRES   REMARKS
ANDERSON       LGT RAIN  53  51  93 NE14G28   29.79S
LIBERTY        LGT RAIN  54  52  94 NE12      29.81R
SPARTANBURG    HVY RAIN  50  46  87 N8        29.83R
CLEMSON        LGT RAIN  54  51  90 E12       29.81F
GREENVILLE     RAIN      53  50  89 NE12      29.83S FOG
GREENWOOD      LGT RAIN  53  50  89 N15G26    29.78F
GREER          RAIN      52  50  93 NE9       29.82S FOG
ROCK HILL      LGT RAIN  53  52  96 NE12G28   29.76F
CHESTER        CLOUDY    54  54 100 N10G18    29.79R
LAURENS        HVY RAIN  50  50 100 NE12      29.79F


...CENTRAL SOUTH CAROLINA...

CITY           SKY/WX    TMP DP  RH WIND       PRES   REMARKS
COLUMBIA APT   LGT RAIN  63  58  83 NE12      29.71F
COLUMBIA OWENS   N/A    N/A N/A N/A MISG      29.74R
MCENTIRE ANGB  PTSUNNY   61  59  93 NE9G18    29.73R
ORANGEBURG     CLOUDY    65  61  87 NE9       29.70F
SUMTER SHAW    LGT RAIN  59  57  94 NE15      29.73R
NEWBERRY       CLOUDY    52  52 100 N14       29.80F FOG
AIKEN          CLOUDY    55  55 100 NE16G23   29.72F FOG
BARNWELL       RAIN      66  64  94 E12       29.67F
MANNING        LGT RAIN  61  59  94 NE10      29.73R
LANCASTER      LGT RAIN  55  55 100 NE21G29   29.77F
WINNSBORO      CLOUDY    55  55 100 NE6       29.76R


...EASTERN AND COASTAL SOUTH CAROLINA...

CITY           SKY/WX    TMP DP  RH WIND       PRES   REMARKS
MYRTLE BEACH   PTSUNNY   70  66  88 S3        29.74F
N MYRTLE BCH   LGT RAIN  73  68  84 SE8       29.73F
CONWAY         CLOUDY    63  63 100 N8        29.74F
MARION         CLOUDY    59  59 100 NE6       29.77R
HARTSVILLE     CLOUDY    54  54 100 N3        29.81R
FLORENCE       TSTM      59  59 100 NE5       29.79R
DARLINGTON     HVY RAIN  57  56  96 NE10      29.80R FOG
CHARLESTON APT PTSUNNY   70  64  81 SE7       29.69S
MOUNT PLEASANT PTSUNNY   68  66  94 SE5       29.70S FOG
WALTERBORO     CLOUDY    72  68  88 E5        29.69S
BEAUFORT       CLOUDY    75  71  87 S6        29.67F


...EASTERN GEORGIA...

CITY           SKY/WX    TMP DP  RH WIND       PRES   REMARKS
AUGUSTA BUSH F RAIN      62  60  93 NW10      29.69F
AUGUSTA DANIEL TSTM      60  56  86 VRB5      29.72R FOG
THOMSON        RAIN      55  54  96 NE8       29.78F FOG
CLAXTON        PTSUNNY   69  66  90 SW8       29.72R
SYLVANIA         N/A    N/A N/A N/A W3        29.71R
STATESBORO     CLOUDY    68  67  99 W10       29.71S
SAVANNAH       CLOUDY    69  61  75 W15       29.71R


...SOUTHERN NORTH CAROLINA...

CITY           SKY/WX    TMP DP  RH WIND       PRES   REMARKS
CHARLOTTE      LGT RAIN  53  50  89 NE9       29.86R
MONROE         RAIN      54  51  90 NE10      29.83R FOG
WADESBORO      HVY RAIN  55  53  92 NE7       29.83R
RUTHERFORDTON  CLOUDY    51  51 100 N6        29.85S
ASHEVILLE      RAIN      51  48  89 SW6       29.86R

$$



USA.gov is the U.S. government's official web portal to all federal, state and local government web resources and services.